{"data":{"norad_id":56912,"intl_designator":"2023-083AN","name":"STARLINK-5805","alt_names":[],"object_type":"PAYLOAD","status":"ACTIVE","operator":null,"country":"US","launch_date":"2023-06-12","launch_site_code":"AFETR","launch_vehicle":null,"mission":null,"orbit_class":"UNKNOWN","rcs_meters":null,"size_class":null,"mass_kg":null,"dimensions":null,"purposes":["comms"],"wikipedia_slug":null,"has_3d_model":false,"image_url":null,"decayed_at":null,"tle_current":{"epoch":"2026-05-24T23:27:18.810720Z","epoch_age_seconds":70372,"freshness":"FRESH","line1":"1 56912U 23083AN  26144.97730105 -.00000978  00000+0 -26024-4 0  9991","line2":"2 56912  43.0045 359.9959 0001370 269.7895  90.2800 15.27574989163463","mean_motion":15.27574989,"eccentricity":0.000137,"inclination_deg":43.0045,"raan_deg":359.9959,"arg_perigee_deg":269.7895,"mean_anomaly_deg":90.28,"bstar":-2.6024e-5,"rev_number":16346,"period_min":94.267057942777,"perigee_km":482.12411626656,"apogee_km":484.00408536818,"semimajor_km":6861.2011008174,"source":"CELESTRAK","updated_at":"2026-05-25T13:38:18.203959Z"}}}